Tiempo cada hora Barsukovo

Hoy, 8 Marzo, Lunes

Tiempo Temperatura Precipitaciones Viento Presión Humedad
00:00 -9°C° 0.1 mm 3 mps 734 mmHg 92%
01:00 -9°C° 0 mm 3 mps 735 mmHg 91%
02:00 -10°C° 0 mm 4 mps 735 mmHg 89%
03:00 -10°C° 0 mm 4 mps 736 mmHg 91%
04:00 -11°C° 0 mm 4 mps 736 mmHg 92%
05:00 -13°C° 0 mm 3 mps 736 mmHg 93%
06:00 -14°C° 0 mm 3 mps 736 mmHg 94%
07:00 -13°C° 0.1 mm 3 mps 736 mmHg 94%
08:00 -12°C° 0.1 mm 3 mps 736 mmHg 94%
09:00 -10°C° 0.1 mm 3 mps 736 mmHg 94%
10:00 -9°C° 0.6 mm 3 mps 737 mmHg 92%
11:00 -7°C° 0.6 mm 3 mps 737 mmHg 89%
12:00 -6°C° 0.6 mm 3 mps 738 mmHg 87%
13:00 -6°C° 0.5 mm 3 mps 738 mmHg 84%
14:00 -8°C° 0.5 mm 4 mps 738 mmHg 82%
15:00 -8°C° 0.5 mm 5 mps 739 mmHg 79%
16:00 -9°C° 0.1 mm 4 mps 739 mmHg 82%
17:00 -9°C° 0.1 mm 3 mps 740 mmHg 84%
18:00 -9°C° 0.1 mm 2 mps 741 mmHg 87%
19:00 -10°C° 0 mm 2 mps 742 mmHg 89%
20:00 -12°C° 0 mm 2 mps 742 mmHg 91%
21:00 -13°C° 0 mm 2 mps 743 mmHg 93%
22:00 -14°C° 0 mm 2 mps 743 mmHg 93%
23:00 -15°C° 0 mm 2 mps 744 mmHg 94%

Mañana, 9 Marzo, Martes

Tiempo Temperatura Precipitaciones Viento Presión Humedad
00:00 -16°C° 0 mm 2 mps 744 mmHg 95%
01:00 -17°C° 0 mm 2 mps 744 mmHg 96%
02:00 -18°C° 0 mm 2 mps 745 mmHg 96%
03:00 -18°C° 0 mm 2 mps 745 mmHg 97%
04:00 -19°C° 0 mm 2 mps 746 mmHg 97%
05:00 -19°C° 0 mm 2 mps 746 mmHg 97%
06:00 -19°C° 0 mm 2 mps 746 mmHg 98%
07:00 -19°C° 0 mm 2 mps 747 mmHg 96%
08:00 -18°C° 0 mm 2 mps 747 mmHg 95%
09:00 -17°C° 0 mm 2 mps 748 mmHg 94%
10:00 -16°C° 0 mm 2 mps 748 mmHg 92%
11:00 -15°C° 0 mm 3 mps 748 mmHg 90%
12:00 -14°C° 0 mm 3 mps 748 mmHg 88%
13:00 -14°C° 0 mm 3 mps 749 mmHg 87%
14:00 -14°C° 0 mm 3 mps 749 mmHg 87%
15:00 -13°C° 0 mm 3 mps 749 mmHg 86%
16:00 -15°C° 0 mm 3 mps 749 mmHg 88%
17:00 -16°C° 0 mm 3 mps 750 mmHg 90%
18:00 -17°C° 0 mm 3 mps 750 mmHg 91%
19:00 -18°C° 0 mm 3 mps 750 mmHg 93%
20:00 -21°C° 0 mm 3 mps 751 mmHg 94%
21:00 -22°C° 0 mm 3 mps 752 mmHg 95%
22:00 -23°C° 0 mm 3 mps 752 mmHg 96%
23:00 -24°C° 0 mm 3 mps 752 mmHg 97%

Pasado mañana, 10 Marzo, Miércoles

Tiempo Temperatura Precipitaciones Viento Presión Humedad
00:00 -24°C° 0 mm 2 mps 753 mmHg 98%
01:00 -25°C° 0 mm 3 mps 753 mmHg 98%
02:00 -26°C° 0 mm 3 mps 753 mmHg 97%
03:00 -27°C° 0 mm 3 mps 754 mmHg 97%
04:00 -27°C° 0 mm 3 mps 754 mmHg 97%
05:00 -29°C° 0 mm 3 mps 755 mmHg 97%
06:00 -30°C° 0 mm 3 mps 755 mmHg 97%
07:00 -29°C° 0 mm 3 mps 755 mmHg 96%
08:00 -29°C° 0 mm 3 mps 756 mmHg 95%
09:00 -27°C° 0 mm 3 mps 756 mmHg 93%
10:00 -25°C° 0 mm 3 mps 757 mmHg 91%
11:00 -24°C° 0 mm 3 mps 757 mmHg 89%
12:00 -22°C° 0 mm 3 mps 757 mmHg 86%
13:00 -21°C° 0 mm 3 mps 758 mmHg 85%
14:00 -21°C° 0 mm 3 mps 758 mmHg 83%
15:00 -19°C° 0 mm 3 mps 758 mmHg 81%
16:00 -21°C° 0 mm 3 mps 758 mmHg 84%
17:00 -22°C° 0 mm 3 mps 758 mmHg 87%
18:00 -21°C° 0 mm 2 mps 758 mmHg 90%
19:00 -23°C° 0 mm 2 mps 758 mmHg 91%
20:00 -24°C° 0 mm 2 mps 758 mmHg 92%
21:00 -24°C° 0 mm 2 mps 759 mmHg 93%
22:00 -24°C° 0 mm 2 mps 759 mmHg 94%
23:00 -24°C° 0 mm 2 mps 759 mmHg 95%

11 Marzo, Jueves

Tiempo Temperatura Precipitaciones Viento Presión Humedad
00:00 -24°C° 0 mm 2 mps 759 mmHg 97%
01:00 -24°C° 0 mm 2 mps 759 mmHg 97%
02:00 -25°C° 0 mm 2 mps 759 mmHg 98%
03:00 -25°C° 0 mm 2 mps 760 mmHg 98%
04:00 -26°C° 0 mm 2 mps 760 mmHg 98%
05:00 -26°C° 0 mm 2 mps 760 mmHg 98%
06:00 -27°C° 0 mm 2 mps 760 mmHg 98%
07:00 -25°C° 0 mm 2 mps 760 mmHg 97%
08:00 -23°C° 0 mm 2 mps 760 mmHg 96%
09:00 -21°C° 0 mm 2 mps 761 mmHg 94%
10:00 -18°C° 0 mm 2 mps 761 mmHg 92%
11:00 -16°C° 0 mm 2 mps 761 mmHg 90%
12:00 -14°C° 0 mm 2 mps 761 mmHg 88%
13:00 -12°C° 0 mm 2 mps 761 mmHg 87%
14:00 -12°C° 0 mm 3 mps 761 mmHg 86%
15:00 -10°C° 0 mm 3 mps 760 mmHg 85%
16:00 -10°C° 0 mm 2 mps 760 mmHg 87%
17:00 -12°C° 0 mm 2 mps 760 mmHg 90%
18:00 -13°C° 0 mm 2 mps 760 mmHg 93%
19:00 -15°C° 0 mm 2 mps 761 mmHg 93%
20:00 -16°C° 0 mm 2 mps 761 mmHg 94%
21:00 -17°C° 0 mm 2 mps 761 mmHg 95%
22:00 -17°C° 0 mm 2 mps 761 mmHg 95%
23:00 -18°C° 0 mm 2 mps 761 mmHg 95%

12 Marzo, Viernes

Tiempo Temperatura Precipitaciones Viento Presión Humedad
00:00 -19°C° 0 mm 2 mps 761 mmHg 95%
01:00 -19°C° 0 mm 2 mps 761 mmHg 96%
02:00 -20°C° 0 mm 2 mps 761 mmHg 96%
03:00 -20°C° 0 mm 2 mps 761 mmHg 97%
04:00 -21°C° 0 mm 2 mps 761 mmHg 97%
05:00 -21°C° 0 mm 2 mps 761 mmHg 98%
06:00 -23°C° 0 mm 2 mps 761 mmHg 98%
07:00 -20°C° 0 mm 2 mps 761 mmHg 96%
08:00 -19°C° 0 mm 2 mps 761 mmHg 94%
09:00 -19°C° 0 mm 3 mps 761 mmHg 92%
10:00 -17°C° 0 mm 3 mps 761 mmHg 89%
11:00 -16°C° 0 mm 4 mps 760 mmHg 86%
12:00 -15°C° 0 mm 4 mps 760 mmHg 83%
13:00 -14°C° 0 mm 4 mps 760 mmHg 82%
14:00 -13°C° 0 mm 5 mps 759 mmHg 80%
15:00 -13°C° 0 mm 5 mps 759 mmHg 79%
16:00 -14°C° 0 mm 5 mps 758 mmHg 81%
17:00 -14°C° 0 mm 5 mps 758 mmHg 84%
18:00 -15°C° 0 mm 5 mps 757 mmHg 86%
19:00 -15°C° 0 mm 5 mps 757 mmHg 86%
20:00 -15°C° 0 mm 5 mps 756 mmHg 85%
21:00 -15°C° 0 mm 5 mps 756 mmHg 85%
22:00 -15°C° 0 mm 6 mps 756 mmHg 85%
23:00 -15°C° 0 mm 6 mps 755 mmHg 86%

13 Marzo, Sábado

Tiempo Temperatura Precipitaciones Viento Presión Humedad
00:00 -14°C° 0 mm 6 mps 755 mmHg 86%
01:00 -14°C° 0.2 mm 6 mps 754 mmHg 88%
02:00 -12°C° 0.2 mm 6 mps 754 mmHg 89%
03:00 -13°C° 0.2 mm 7 mps 753 mmHg 91%
04:00 -13°C° 0.2 mm 7 mps 753 mmHg 91%
05:00 -13°C° 0.2 mm 7 mps 753 mmHg 92%
06:00 -12°C° 0.2 mm 7 mps 752 mmHg 92%
07:00 -12°C° 0.4 mm 7 mps 752 mmHg 92%
08:00 -11°C° 0.4 mm 7 mps 752 mmHg 93%
09:00 -11°C° 0.4 mm 7 mps 752 mmHg 93%
10:00 -9°C° 0.3 mm 7 mps 752 mmHg 93%
11:00 -8°C° 0.3 mm 7 mps 752 mmHg 93%
12:00 -6°C° 0.3 mm 6 mps 752 mmHg 93%
13:00 -5°C° 0.2 mm 6 mps 752 mmHg 93%
14:00 -5°C° 0.2 mm 6 mps 752 mmHg 94%
15:00 -4°C° 0.2 mm 5 mps 752 mmHg 94%
16:00 -4°C° 0.1 mm 5 mps 752 mmHg 94%
17:00 -4°C° 0.1 mm 5 mps 752 mmHg 94%
18:00 -3°C° 0.1 mm 4 mps 752 mmHg 94%
19:00 -3°C° 0 mm 4 mps 752 mmHg 94%
20:00 -3°C° 0 mm 4 mps 753 mmHg 94%
21:00 -3°C° 0 mm 4 mps 753 mmHg 94%
22:00 -3°C° 0 mm 4 mps 753 mmHg 94%
23:00 -3°C° 0 mm 4 mps 753 mmHg 94%
Mostrar más

Necesitamos Su Consentimiento

Meteoprog y nuestros Proveedores de Servicios pueden almacenar y acceder a sus datos personales como cookies, identificadores de dispositivo u otras tecnologías similares de su dispositivo y procesar dichos datos para personalizar contenido y anuncios, además de ofrecer funciones de redes sociales y analizar el tráfico.

  • Almacenar y/o acceder a información en su dispositivo

    Se puede almacenar o acceder a cookies, identificadores de dispositivo u otra información de su dispositivo para los fines anteriormente indicados.

  • Anuncios y contenido personalizados, medición de anuncios y contenido, percepciones del público, y desarrollo de productos

    Los anuncios y el contenido pueden personalizarse en base a su perfil. Se pueden añadir más datos para personalizar mejor los anuncios y contenidos. Se puede medir el rendimiento de los anuncios y contenidos. Se puede obtener la percepción sobre el público que ha visto los anuncios y contenidos. Dichos datos pueden usarse para desarrollar o mejorar la experiencia del usuario, sistemas y software.

Al hacer clic en ‘Estoy De Acuerdo’ usted permitirá el uso de las cookies, identificadores de dispositivo, balizas web u otras tecnologías similares indicadas. Su configuración puede cambiarse desde el navegador de su dispositivo.

Para ciertos fines, los intereses legítimos pueden ser considerados por encima del consentimiento. Puede leer más sobre ello en nuestra Política de Privacidad y Cookies.